Location: ????????
(38.4362°N, 22.8767°E)
Time: 12:19:32
(UTC+00:00)

ATLAS 2AS CENTAUR R/B - Pass Details

Date: 23 April 2024
Orbit: 1015 x 1196 km, 63.7° (Epoch: 17 May)

Event Time Altitude Azimuth Distance (km) Brightness Sun altitude
Exits shadow 01:49:23 21° 277° (W) 2,344 4.1 -20.4°
Maximum altitude 01:52:43 29° 317° (NW) 1,958 4.0 -19.9°
Drops below altitude 10° 01:58:50 10° 16° (NNE) 2,991 5.7 -18.9°
Sets 02:01:54 0° 27° (NNE) 3,922 6.7 -18.4°
